Location: Unspecified
(0.0000°N, 0.0000°E)
Time: 16:53:38
(UTC+00:00)

NNS O-31 - Visible Passes

Search period start: 28 May 2023 00:00
Search period end: 07 June 2023 00:00
Orbit: 1029 x 1171 km, 90.0° (Epoch: 27 May)

Date Brightness Start Highest point End Pass type
(mag) Time Alt. Az. Time Alt. Az. Time Alt. Az.
28 May 9.9 21:08:02 10° N 21:11:05 27° NNW 21:11:05 27° NNW visible
29 May 9.4 20:23:28 10° NNE 20:26:56 32° NNE 20:26:56 32° NNE visible
30 May 9.8 19:40:17 10° NE 19:42:48 20° NE 19:42:48 20° NE visible
30 May 10.2 21:26:51 10° NNW 21:30:10 24° NW 21:30:10 24° NW visible
31 May 9.1 20:41:24 10° N 20:46:04 44° NNW 20:46:04 44° NNW visible
01 Jun 9.0 19:57:18 10° NNE 20:01:59 38° NE 20:01:59 38° NE visible
01 Jun 10.6 21:46:40 10° NW 21:49:21 15° WNW 21:49:21 15° WNW visible
02 Jun 9.7 19:14:50 10° NE 19:17:55 18° ENE 19:17:55 18° ENE visible
02 Jun 9.5 20:59:52 10° NNW 21:05:17 39° WNW 21:05:17 39° WNW visible
03 Jun 8.3 20:14:56 10° N 20:21:15 72° NNE 20:21:15 72° NNE visible
04 Jun 8.9 19:31:20 10° NNE 19:37:13 35° E 19:37:13 35° E visible
04 Jun 10.1 21:19:02 10° NW 21:24:25 23° W 21:24:37 23° W visible
05 Jun 9.8 18:50:03 10° ENE 18:53:14 14° E 18:53:14 14° E visible
05 Jun 8.8 20:33:06 10° N 20:40:04 57° W 20:40:37 55° WSW visible
06 Jun 8.3 19:48:38 10° NNE 19:55:41 63° E 19:56:39 57° SE visible
06 Jun 10.8 21:39:53 10° WNW 21:42:22 12° W 21:44:02 11° W visible
